Weather History for Lee's Summit, MO

Change the Weather History Date:

Wednesday, November 7, 2012

  Actual Average (KMKC) Record (KMKC)
Temperature  
Mean Temperature 46 °F -  
Max Temperature 54 °F 54 °F 75 °F (1999)
Min Temperature 39 °F 38 °F 28 °F (2003)
Degree Days  
Heating Degree Days 18    
Moisture  
Dew Point 31 °F    
Average Humidity 60    
Maximum Humidity 73    
Minimum Humidity 43    
Precipitation  
Precipitation 0.00 in - - ()
Sea Level Pressure  
Sea Level Pressure 30.13 in    
Wind  
Wind Speed 7 mph (NNW)    
Max Wind Speed 12 mph    
Max Gust Speed 16 mph    
Visibility 10 miles    
Events      
Averages and records for this station are not official NWS values.
T = Trace of Precipitation, MM = Missing Value Source: NWS Daily Summary

Daily Weather History Graph

Daily Weather History Graph

Search for Another Location

Airport:

Trip Planner

Search our weather history database for the weather conditions in past years. The results will help you decide how hot, cold, wet, or windy it might be!

Date:

Astronomy

Nov. 07, 2012 Rise Set
Actual Time 6:51 AM CST 5:09 PM CST
Civil Twilight 6:23 AM CST 5:37 PM CST
Nautical Twilight 5:52 AM CST 6:09 PM CST
Astronomical Twilight 5:20 AM CST 6:41 PM CST
Moon No Moon Rise 1:16 PM CST (11/7)
Length of Visible Light 11h 14m
Length of Day
10h 18m
Last Quarter, 43% of the Moon is Illuminated
Nov 7
Last Quarter
Nov 13
New
Nov 20
First Quarter
Nov 28
Full
Dec 6
Last Quarter

Hourly Weather History & Observations

Time (CST) Temp. Windchill Dew Point Humidity Pressure Visibility Wind Dir Wind Speed Gust Speed Precip Events Conditions
12:53 AM 44.1 °F 39.5 °F 30.0 °F 58% 30.08 in 10.0 mi NW 8.1 mph - N/A   Clear
1:53 AM 42.1 °F 38.4 °F 30.0 °F 62% 30.08 in 10.0 mi NW 5.8 mph - N/A   Clear
2:53 AM 41.0 °F 39.0 °F 28.9 °F 62% 30.08 in 10.0 mi West 3.5 mph - N/A   Clear
3:53 AM 39.0 °F 34.8 °F 28.9 °F 67% 30.08 in 10.0 mi WSW 5.8 mph - N/A   Clear
4:53 AM 39.0 °F 32.8 °F 30.0 °F 70% 30.10 in 10.0 mi NW 9.2 mph - N/A   Clear
5:53 AM 39.9 °F 33.4 °F 30.0 °F 68% 30.11 in 10.0 mi NW 10.4 mph - N/A   Clear
6:53 AM 39.0 °F 32.3 °F 30.0 °F 70% 30.14 in 10.0 mi NW 10.4 mph - N/A   Clear
7:53 AM 41.0 °F 35.8 °F 30.9 °F 67% 30.17 in 10.0 mi NW 8.1 mph - N/A   Clear
8:53 AM 45.0 °F 39.3 °F 32.0 °F 60% 30.18 in 10.0 mi North 11.5 mph - N/A   Clear
9:53 AM 46.9 °F - 32.0 °F 56% 30.19 in 10.0 mi NNW 10.4 mph - N/A   Clear
10:53 AM 48.9 °F - 33.1 °F 54% 30.20 in 10.0 mi NW 10.4 mph - N/A   Partly Cloudy
11:53 AM 50.0 °F - 32.0 °F 50% 30.18 in 10.0 mi NNE 6.9 mph 16.1 mph N/A   Clear
12:53 PM 51.1 °F - 32.0 °F 48% 30.15 in 10.0 mi North 5.8 mph - N/A   Clear
2:53 PM 54.0 °F - 32.0 °F 43% 30.12 in 10.0 mi Calm Calm - N/A   Clear
3:53 PM 53.1 °F - 33.1 °F 47% 30.12 in 10.0 mi NE 3.5 mph - N/A   Clear
4:53 PM 51.1 °F - 30.9 °F 46% 30.12 in 10.0 mi Calm Calm - N/A   Clear
5:53 PM 48.9 °F - 32.0 °F 52% 30.12 in 10.0 mi ESE 4.6 mph - N/A   Clear
7:53 PM 44.1 °F 40.8 °F 33.1 °F 65% 30.13 in 10.0 mi SE 5.8 mph - N/A   Clear
8:53 PM 43.0 °F 39.5 °F 33.1 °F 68% 30.14 in 10.0 mi SE 5.8 mph - N/A   Clear
9:53 PM 42.1 °F 37.7 °F 32.0 °F 67% 30.14 in 10.0 mi SE 6.9 mph - N/A   Clear
10:53 PM 41.0 °F 38.0 °F 32.0 °F 70% 30.14 in 10.0 mi SSE 4.6 mph - N/A   Clear
11:53 PM 39.9 °F 35.1 °F 32.0 °F 73% 30.14 in 10.0 mi SE 6.9 mph - N/A   Clear